Погода в Шацке

Украина / Волынская область     51°29′48″N   23°55′48″E
темп.,
°C
ветер,
м/с
пор.,
м/с
влажн.,
%
обл.,
%
осадки,
мм/ч
давл.,
гПа
погр.,
м
11 мая, вт
вт1100:00+12юв51481100 0.0 1020297
03:00+10юв5138258 0.0 1020250
06:00+9юв615785 0.0 1020296
09:00+14юв7146621 0.0 1020575
12:00+18юв810555 0.0 10191007
15:00+20юв89500 0.0 10181230
18:00+19вюв79550 0.0 10171069
21:00+13вюв513690 0.0 1016325
12 мая, ср
ср1200:00+12юв515820 0.0 1017360
03:00+11вюв514865 0.0 1015324
06:00+10вюв411945 0.0 1015230
09:00+15вюв811781 0.0 1014615
12:00+16вюв81069100 0.0 10141091
15:00+17вюв89481 0.0 10131534
18:00+16вюв78594 0.0 10121543
21:00+11вюв511700 0.0 1012444
13 мая, чт
чт1300:00+8вюв411845 0.0 1011287
03:00+6юв38895 0.0 1008154
06:00+5в3591100 0.0 100799
09:00+11вюв4671100 0.0 1005404
12:00+15юв6769100 0.0 10031135
15:00+15юв567597 0.0 1003836
18:00+17юв587896 0.3 1001915
21:00+13ююв4894100 1.5 1002209
14 мая, пт
пт1400:00+12ююв61293100 0.1 1003507
03:00+12ю4995100 0.1 1003354
06:00+11ю3696100 0.2 1004168
09:00+13ю2385100 0.2 1005335
12:00+15ю2380100 0.6 1006753
15:00+16зюз6776100 2.9 10071015
18:00+13зюз577447 0.1 1008481
21:00+11юз378414 0.1 1009150
15 мая, сб
сб1500:00+11юз4976100 0.0 1010473
03:00+11юз497964 0.1 1010418
06:00+10зюз4108298 0.0 1011420
09:00+13зюз57745 0.0 1012684
12:00+16зюз566089 0.0 10121526
15:00+13з5892100 1.0 1009519
18:00
21:00+13сз227865 0.0 101211